Weather History for KGCD - August, 2013

Change the Weather History Date:

Wednesday, August 21, 2013

  Actual Average (KBNO) Record (KBNO)
Temperature  
Mean Temperature 72 °F 64 °F  
Max Temperature 93 °F 84 °F 94 °F (1969)
Min Temperature 52 °F 44 °F 34 °F (2000)
Degree Days  
Heating Degree Days 0 3  
Month to date heating degree days 39  
Since 1 June heating degree days 315  
Since 1 July heating degree days 97  
Cooling Degree Days 8 2  
Month to date cooling degree days 62  
Year to date cooling degree days 194  
Since 1 June cooling degree days 191  
Growing Degree Days 22 (Base 50)    
Moisture  
Dew Point 31 °F    
Average Humidity 24    
Maximum Humidity 46    
Minimum Humidity 10    
Precipitation  
Precipitation 0.00 in 0.01 in 0.22 in (1979)
Month to date precipitation 0.24  
Year to date precipitation 6.86  
Sea Level Pressure  
Sea Level Pressure 30.06 in    
Wind  
Wind Speed 5 mph (WNW)    
Max Wind Speed 15 mph    
Max Gust Speed -    
Visibility 10 miles    
Events      
T = Trace of Precipitation, MM = Missing Value Source: NWS Daily Summary

Daily Weather History Graph

Daily Weather History Graph

Search for Another Location

Airport or City:

Trip Planner

Search our weather history database for the weather conditions in past years. The results will help you decide how hot, cold, wet, or windy it might be!

Date:

Astronomy

Aug. 21, 2013 Rise Set
Actual Time 6:06 AM PDT 7:50 PM PDT
Civil Twilight 5:35 AM PDT 8:21 PM PDT
Nautical Twilight 4:57 AM PDT 8:58 PM PDT
Astronomical Twilight 4:16 AM PDT 9:39 PM PDT
Moon 7:56 PM PDT (8/21) 6:56 AM PDT (8/21)
Length of Visible Light 14h 46m
Length of Day
13h 44m
Full, 99% of the Moon is Illuminated
Aug 21
Full
Aug 28
Last Quarter
Sep 5
New
Sep 12
First Quarter
Sep 19
Full

Hourly Weather History & Observations

Time (PDT) Temp. Dew Point Humidity Pressure Visibility Wind Dir Wind Speed Gust Speed Precip Events Conditions
12:15 AM 64.9 °F 33.1 °F 31% 30.09 in 10.0 mi WSW 4.6 mph - N/A   Clear
12:35 AM 64.4 °F 32.0 °F 30% 30.09 in 10.0 mi SW 4.6 mph - N/A   Clear
12:55 AM 65.7 °F 31.8 °F 28% 30.09 in 10.0 mi West 3.5 mph - N/A   Clear
1:15 AM 64.2 °F 32.0 °F 30% 30.10 in 10.0 mi Calm Calm - N/A   Clear
1:35 AM 61.2 °F 32.5 °F 34% 30.10 in 10.0 mi ENE 4.6 mph - N/A   Clear
1:55 AM 60.6 °F 33.1 °F 36% 30.10 in 10.0 mi East 5.8 mph - N/A   Clear
2:15 AM 60.1 °F 33.3 °F 36% 30.09 in 10.0 mi East 6.9 mph - N/A   Clear
2:35 AM 61.2 °F 33.1 °F 35% 30.09 in 10.0 mi ENE 4.6 mph - N/A   Clear
2:55 AM 59.7 °F 33.1 °F 37% 30.10 in 10.0 mi East 6.9 mph - N/A   Clear
3:15 AM 58.6 °F 32.9 °F 38% 30.09 in 10.0 mi ESE 6.9 mph - N/A   Clear
3:35 AM 58.1 °F 33.3 °F 39% 30.09 in 10.0 mi East 6.9 mph - N/A   Clear
3:55 AM 57.6 °F 32.4 °F 39% 30.09 in 10.0 mi East 3.5 mph - N/A   Clear
4:15 AM 56.3 °F 32.2 °F 40% 30.09 in 10.0 mi Calm Calm - N/A   Clear
4:35 AM 54.5 °F 32.0 °F 42% 30.09 in 10.0 mi ESE 8.1 mph - N/A   Clear
4:55 AM 57.0 °F 32.0 °F 39% 30.09 in 10.0 mi ESE 9.2 mph - N/A   Clear
5:15 AM 56.8 °F 32.0 °F 39% 30.09 in 10.0 mi ESE 5.8 mph - N/A   Clear
5:35 AM 55.6 °F 32.0 °F 41% 30.09 in 10.0 mi ESE 5.8 mph - N/A   Clear
5:55 AM 52.9 °F 32.0 °F 45% 30.09 in 10.0 mi ESE 5.8 mph - N/A   Clear
6:15 AM 52.2 °F 32.0 °F 46% 30.09 in 10.0 mi East 5.8 mph - N/A   Clear
6:35 AM 52.9 °F 32.0 °F 45% 30.10 in 10.0 mi East 3.5 mph - N/A   Clear
6:55 AM 54.5 °F 32.2 °F 43% 30.10 in 10.0 mi ESE 4.6 mph - N/A   Clear
7:15 AM 56.3 °F 32.0 °F 40% 30.10 in 10.0 mi ESE 9.2 mph - N/A   Clear
7:35 AM 58.3 °F 32.2 °F 37% 30.10 in 10.0 mi ESE 8.1 mph - N/A   Clear
7:55 AM 59.9 °F 32.5 °F 36% 30.10 in 10.0 mi East 8.1 mph - N/A   Clear
8:15 AM 61.5 °F 32.9 °F 34% 30.10 in 10.0 mi ESE 8.1 mph - N/A   Clear
8:35 AM 61.9 °F 33.4 °F 34% 30.10 in 10.0 mi East 5.8 mph - N/A   Clear
8:55 AM 62.4 °F 33.4 °F 34% 30.10 in 10.0 mi East 5.8 mph - N/A   Clear
9:15 AM 65.8 °F 34.5 °F 31% 30.10 in 10.0 mi East 3.5 mph - N/A   Clear
9:35 AM 68.2 °F 34.7 °F 29% 30.10 in 10.0 mi Calm Calm - N/A   Clear
9:55 AM 70.7 °F 34.0 °F 26% 30.10 in 10.0 mi WSW 4.6 mph - N/A   Clear
10:15 AM 72.9 °F 34.9 °F 25% 30.10 in 10.0 mi Calm Calm - N/A   Clear
10:35 AM 74.1 °F 35.1 °F 24% 30.09 in 10.0 mi West 4.6 mph - N/A   Clear
10:55 AM 75.6 °F 34.9 °F 23% 30.09 in 10.0 mi West 8.1 mph - N/A   Clear
11:15 AM 77.0 °F 33.3 °F 20% 30.09 in 10.0 mi WNW 8.1 mph - N/A   Clear
11:35 AM 78.4 °F 32.0 °F 18% 30.09 in 10.0 mi WNW 9.2 mph - N/A   Clear
11:55 AM 78.8 °F 29.8 °F 17% 30.09 in 10.0 mi WSW 9.2 mph - N/A   Clear
12:15 PM 79.9 °F 28.6 °F 15% 30.09 in 10.0 mi West 9.2 mph - N/A   Clear
12:35 PM 82.0 °F 28.9 °F 14% 30.08 in 10.0 mi WNW 8.1 mph - N/A   Clear
12:55 PM 84.4 °F 27.3 °F 13% 30.08 in 10.0 mi WSW 6.9 mph - N/A   Clear
1:15 PM 84.0 °F 28.2 °F 13% 30.07 in 10.0 mi West 4.6 mph - N/A   Clear
1:35 PM 86.2 °F 29.1 °F 13% 30.07 in 10.0 mi WNW 4.6 mph - N/A   Clear
1:55 PM 86.5 °F 29.3 °F 13% 30.05 in 10.0 mi Calm Calm - N/A   Clear
2:15 PM 88.7 °F 29.8 °F 12% 30.05 in 10.0 mi NW 3.5 mph - N/A   Clear
2:35 PM 89.2 °F 30.2 °F 12% 30.04 in 10.0 mi WNW 8.1 mph - N/A   Clear
2:55 PM 89.4 °F 30.4 °F 12% 30.03 in 10.0 mi WNW 5.8 mph - N/A   Clear
3:15 PM 90.0 °F 28.0 °F 11% 30.02 in 10.0 mi NW 3.5 mph - N/A   Clear
3:35 PM 91.2 °F 27.3 °F 10% 30.01 in 10.0 mi Calm Calm - N/A   Clear
3:55 PM 91.9 °F 30.0 °F 11% 30.00 in 10.0 mi Calm Calm - N/A   Clear
4:15 PM 93.4 °F 31.1 °F 11% 30.00 in 10.0 mi NNW 8.1 mph - N/A   Clear
4:35 PM 93.4 °F 31.6 °F 11% 29.99 in 10.0 mi WNW 11.5 mph - N/A   Clear
4:55 PM 91.8 °F 30.4 °F 11% 29.99 in 10.0 mi WNW 15.0 mph - N/A   Clear
5:15 PM 90.5 °F 29.5 °F 11% 29.99 in 10.0 mi WNW 15.0 mph - N/A   Clear
5:35 PM 89.2 °F 28.2 °F 11% 29.99 in 10.0 mi WNW 10.4 mph - N/A   Clear
5:55 PM 88.9 °F 28.8 °F 12% 29.99 in 10.0 mi West 6.9 mph - N/A   Clear
6:15 PM 89.8 °F 28.9 °F 11% 29.98 in 10.0 mi West 8.1 mph - N/A   Clear
6:35 PM 88.5 °F 28.4 °F 11% 29.98 in 10.0 mi NW 6.9 mph - N/A   Clear
6:55 PM 87.1 °F 28.6 °F 12% 29.99 in 10.0 mi NNW 4.6 mph - N/A   Clear
7:15 PM 86.2 °F 28.9 °F 13% 29.99 in 10.0 mi NW 3.5 mph - N/A   Clear
7:35 PM 84.4 °F 29.1 °F 14% 30.00 in 10.0 mi WNW 4.6 mph - N/A   Clear
7:55 PM 83.1 °F 29.3 °F 14% 30.00 in 10.0 mi NNW 3.5 mph - N/A   Clear
8:15 PM 82.8 °F 29.7 °F 15% 30.01 in 10.0 mi NNW 5.8 mph - N/A   Clear
8:35 PM 81.9 °F 30.2 °F 15% 30.01 in 10.0 mi NNW 3.5 mph - N/A   Clear
8:55 PM 81.9 °F 30.7 °F 16% 30.02 in 10.0 mi North 3.5 mph - N/A   Clear
9:15 PM 79.5 °F 30.2 °F 17% 30.03 in 10.0 mi SW 4.6 mph - N/A   Clear
9:35 PM 78.1 °F 30.7 °F 18% 30.03 in 10.0 mi NW 4.6 mph - N/A   Clear
9:55 PM 78.6 °F 30.6 °F 17% 30.03 in 10.0 mi Calm Calm - N/A   Clear
10:15 PM 76.6 °F 30.7 °F 19% 30.03 in 10.0 mi WSW 4.6 mph - N/A   Clear
10:35 PM 75.7 °F 31.1 °F 19% 30.04 in 10.0 mi WSW 5.8 mph - N/A   Clear
10:55 PM 74.3 °F 31.8 °F 21% 30.04 in 10.0 mi West 5.8 mph - N/A   Clear
11:15 PM 74.5 °F 32.2 °F 21% 30.04 in 10.0 mi WSW 6.9 mph - N/A   Clear
11:35 PM 74.1 °F 32.2 °F 21% 30.04 in 10.0 mi West 4.6 mph - N/A   Clear
11:55 PM 73.4 °F 32.5 °F 22% 30.04 in 10.0 mi Calm Calm - N/A   Clear